Regional Weather Roundup
Issued by NWS Cleveland, OH

Home | Current Version | Previous Version | Graphics & Text | Print | Product List | Glossary On
Versions: 1 2 3 4 5 6 7 8 9 10 11 12 13 14 15 16 17 18 19 20 21 22 23 24 25 26 27 28 29 30 31 32 33 34 35 36 37 38 39 40 41 42 43 44 45 46 47 48 49 50
000
ASUS41 KCLE 040210
RWRCLE
OHIO REGIONAL WEATHER ROUNDUP
NATIONAL WEATHER SERVICE WILMINGTON, OH
900 PM EST TUE MAR 03 2015

NOTE: "FAIR" INDICATES FEW OR NO CLOUDS BELOW 12,000 FEET WITH NO
SIGNIFICANT WEATHER AND/OR OBSTRUCTIONS TO VISIBILITY.

OHZ001>008-015>018-024>027-034-035-043-044-040300-
   NORTHWEST OHIO

CITY           SKY/WX    TMP DP  RH WIND       PRES   REMARKS
DEFIANCE       CLOUDY    37  32  82 W10G20    29.75R
FINDLAY        CLOUDY    36  33  89 W21       29.75R
TOLEDO EXPRESS CLOUDY    35  32  88 W16       29.72R WCI  25
TOLEDO EXEC    CLOUDY    37  32  82 W15G23    29.72R
LIMA           CLOUDY    37  32  82 W25G32    29.77R
$$

OHZ009>014-019>023-028>033-038-089-040300-
   NORTHEAST OHIO

CITY           SKY/WX    TMP DP  RH WIND       PRES   REMARKS
CLE-HOPKINS    CLOUDY    39  35  86 W23G31    29.73S
CLE-LAKEFRONT  CLOUDY    38  34  85 W18       29.71R
CUY CO. ARPT   CLOUDY    41  28  60 W18G29    29.71R
LORAIN-ELYRIA  CLOUDY    38  35  89 W18G29    29.72R
ASHTABULA      CLOUDY    39  36  89 W13G23    29.70R
AKRON-CANTON   CLOUDY    42  39  89 W13       29.71S FOG
WOOSTER        CLOUDY    39  37  92 W16G26    29.71S
MANSFIELD      CLOUDY    39  37  92 W15G29    29.72R
YOUNGSTOWN     DRIZZLE   40  39  97 SW12G21   29.70R FOG
$$

OHZ042-051>053-060>062-070>072-077>081-040300-
  SOUTHWEST OHIO

CITY           SKY/WX    TMP DP  RH WIND       PRES   REMARKS
CINC-COVINGTON LGT RAIN  46  44  93 W10       29.84R FOG
CINC-LUNKEN    LGT RAIN  45  44  97 W9        29.85R FOG
HAMILTON       LGT RAIN  45  44  97 W7        29.84R
DAYTON         LGT RAIN  40  38  93 W9        29.83R
WRIGHT-PAT AFB LGT RAIN  41  40  95 W13       29.82R
DAYTON GENERAL LGT RAIN  43  42  97 W10       29.82R
WILMINGTON     LGT RAIN  43  42  97 W14       29.80R
$$

OHZ036-037-039>041-045>050-054>059-063>069-073>076-082>088-040300-
  CENTRAL AND SOUTHEAST OHIO

CITY           SKY/WX    TMP DP  RH WIND       PRES   REMARKS
COLUMBUS       LGT RAIN  41  40  96 W9        29.78R FOG
OSU AIRPORT    LGT RAIN  41  39  93 W15       29.77R
BOLTON FIELD   CLOUDY   N/A N/A N/A W9        29.79S
RICKENBACK AFB LGT RAIN  39  39 100 SW3       29.79R VSB 1/4
NEWARK         CLOUDY    43  41  93 W12       29.77R
MARION         CLOUDY    39  36  89 W14       29.78R
LANCASTER      CLOUDY    45  44  97 W15G21    29.79R
ZANESVILLE     LGT RAIN  46  44  93 W9        29.77R
NEW PHILLY     LGT RAIN  47  43  86 W12       29.75R FOG
$$


USA.gov is the U.S. government's official web portal to all federal, state and local government web resources and services.